Madison, SD

4:15 PM CST on November 11, 2019 (GMT -0600)
Madison Municipal

Weather History for KMDS - September, 2019

Change the Weather History Date:

Tuesday, September 3, 2019

  Actual Average Record
Temperature  
Mean Temperature 62 °F -  
Max Temperature 71 °F 79 °F 87 °F (2012)
Min Temperature 53 °F 55 °F 48 °F (2010)
Degree Days  
Heating Degree Days 3    
Growing Degree Days 12 (Base 50)    
Moisture  
Dew Point 60 °F    
Average Humidity 84    
Maximum Humidity 100    
Minimum Humidity 50    
Precipitation  
Precipitation 0.00 in - - ()
Sea Level Pressure  
Sea Level Pressure 29.97 in    
Wind  
Wind Speed 9 mph ()    
Max Wind Speed 25 mph    
Max Gust Speed 36 mph    
Visibility 9.0 miles    
Events Fog    
Averages and records for this station are not official NWS values.
T = Trace of Precipitation, MM = Missing Value Source: Averaged Metar Reports

Daily Weather History Graph

Daily Weather History Graph

Search for Another Location

Airport or City:

Astronomy

Sep. 03, 2019 Rise Set
Actual Time 6:53 AM CDT 8:01 PM CDT
Civil Twilight 6:24 AM CDT 8:30 PM CDT
Nautical Twilight 5:48 AM CDT 9:05 PM CDT
Astronomical Twilight 5:11 AM CDT 9:43 PM CDT
Moon 11:57 AM CDT (9/3) 10:47 PM CDT (9/3)
Length of Visible Light 14h 06m
Length of Day
13h 07m
Waxing Crescent, 25% of the Moon is Illuminated
Sep 3
Waxing Crescent
Sep 5
First Quarter
Sep 13
Full
Sep 21
Last Quarter
Sep 28
New

Hourly Weather History & Observations

Time (CDT) Temp. Dew Point Humidity Pressure Visibility Wind Dir Wind Speed Gust Speed Precip Events Conditions
12:00 AM 71.6 °F 71.6 °F 100% 29.82 in 10.0 mi Calm Calm - N/A   Partly Cloudy
12:15 AM 69.8 °F 69.8 °F 100% 29.82 in 6.0 mi Calm Calm - N/A   Partly Cloudy
12:35 AM 68.0 °F 68.0 °F 100% 29.81 in 0.5 mi Calm Calm - N/A Fog Fog
12:40 AM 68.0 °F 68.0 °F 100% 29.80 in 0.2 mi Calm Calm - N/A Fog Fog
12:55 AM 68.0 °F 68.0 °F 100% 29.81 in 0.2 mi Calm Calm - N/A Fog Fog
1:15 AM 66.2 °F 66.2 °F 100% 29.81 in 0.2 mi Calm Calm - N/A Fog Fog
1:20 AM 66.2 °F 66.2 °F 100% 29.81 in 0.2 mi Calm Calm - N/A Fog Fog
1:35 AM 66.2 °F 66.2 °F 100% 29.81 in 0.2 mi WNW 3.5 mph - N/A Fog Fog
1:55 AM 64.4 °F 64.4 °F 100% 29.82 in 0.2 mi West 3.5 mph - N/A Fog Fog
2:15 AM 66.2 °F 66.2 °F 100% 29.83 in 0.2 mi WNW 5.8 mph - N/A Fog Fog
2:20 AM 66.2 °F 66.2 °F 100% 29.83 in 0.2 mi WNW 6.9 mph - N/A Fog Fog
2:35 AM 64.4 °F 64.4 °F 100% 29.83 in 0.2 mi NW 6.9 mph - N/A Fog Fog
2:40 AM 64.4 °F 64.4 °F 100% 29.83 in 0.2 mi NW 6.9 mph - N/A Fog Fog
2:55 AM 66.2 °F 66.2 °F 100% 29.83 in 3.0 mi WNW 6.9 mph - N/A   Partly Cloudy
3:00 AM 66.2 °F 66.2 °F 100% 29.83 in 8.0 mi WNW 5.8 mph - N/A   Clear
3:15 AM 68.0 °F 68.0 °F 100% 29.83 in 10.0 mi WNW 9.2 mph - N/A   Clear
3:20 AM 69.8 °F 69.8 °F 100% 29.84 in 10.0 mi WNW 10.4 mph - N/A   Clear
3:35 AM 69.8 °F 69.8 °F 100% 29.84 in 10.0 mi NW 9.2 mph - N/A   Clear
3:55 AM 68.0 °F 68.0 °F 100% 29.85 in 10.0 mi WNW 10.4 mph - N/A   Clear
4:00 AM 68.0 °F 68.0 °F 100% 29.84 in 10.0 mi WNW 10.4 mph - N/A   Clear
4:15 AM 68.0 °F 68.0 °F 100% 29.85 in 10.0 mi NW 10.4 mph - N/A   Clear
4:20 AM 68.0 °F 68.0 °F 100% 29.85 in 10.0 mi NW 10.4 mph - N/A   Clear
4:35 AM 68.0 °F 68.0 °F 100% 29.85 in 10.0 mi WNW 8.1 mph - N/A   Partly Cloudy
4:40 AM 68.0 °F 68.0 °F 100% 29.87 in 10.0 mi WNW 9.2 mph - N/A   Scattered Clouds
4:55 AM 68.0 °F 68.0 °F 100% 29.86 in 10.0 mi NW 9.2 mph - N/A   Scattered Clouds
5:00 AM 68.0 °F 68.0 °F 100% 29.86 in 10.0 mi NW 8.1 mph - N/A   Scattered Clouds
5:15 AM 68.0 °F 68.0 °F 100% 29.91 in 10.0 mi WNW 11.5 mph - N/A   Partly Cloudy
5:20 AM 68.0 °F 68.0 °F 100% 29.90 in 10.0 mi NW 11.5 mph - N/A   Partly Cloudy
5:35 AM 66.2 °F 66.2 °F 100% 29.90 in 10.0 mi NW 12.7 mph - N/A   Partly Cloudy
5:55 AM 66.2 °F 66.2 °F 100% 29.92 in 10.0 mi NW 11.5 mph 17.3 mph N/A   Mostly Cloudy
6:00 AM 66.2 °F 66.2 °F 100% 29.92 in 10.0 mi NW 10.4 mph 17.3 mph N/A   Mostly Cloudy
6:15 AM 66.2 °F 66.2 °F 100% 29.91 in 10.0 mi NNW 10.4 mph - N/A   Partly Cloudy
6:20 AM 66.2 °F 66.2 °F 100% 29.92 in 10.0 mi NW 9.2 mph - N/A   Clear
6:35 AM 66.2 °F 66.2 °F 100% 29.90 in 10.0 mi NNW 9.2 mph - N/A   Clear
6:40 AM 66.2 °F 66.2 °F 100% 29.90 in 10.0 mi NNW 10.4 mph - N/A   Clear
6:55 AM 66.2 °F 66.2 °F 100% 29.90 in 10.0 mi NNW 10.4 mph - N/A   Clear
7:15 AM 66.2 °F 66.2 °F 100% 29.90 in 10.0 mi NNW 12.7 mph - N/A   Clear
7:20 AM 66.2 °F 66.2 °F 100% 29.91 in 10.0 mi NNW 12.7 mph - N/A   Clear
7:35 AM 66.2 °F 66.2 °F 100% 29.92 in 10.0 mi NNW 13.8 mph - N/A   Clear
7:40 AM 66.2 °F 66.2 °F 100% 29.91 in 10.0 mi NNW 12.7 mph - N/A   Clear
7:55 AM 64.4 °F 64.4 °F 100% 29.92 in 10.0 mi NNW 12.7 mph - N/A   Clear
8:00 AM 64.4 °F 64.4 °F 100% 29.92 in 10.0 mi NNW 12.7 mph - N/A   Clear
8:15 AM 64.4 °F 64.4 °F 100% 29.92 in 10.0 mi NNW 13.8 mph 17.3 mph N/A   Clear
8:20 AM 64.4 °F 64.4 °F 100% 29.92 in 10.0 mi NNW 13.8 mph - N/A   Clear
8:35 AM 64.4 °F 64.4 °F 100% 29.92 in 10.0 mi NNW 13.8 mph - N/A   Clear
8:55 AM 64.4 °F 64.4 °F 100% 29.92 in 10.0 mi NNW 12.7 mph - N/A   Clear
9:15 AM 66.2 °F 66.2 °F 100% 29.93 in 10.0 mi NNW 13.8 mph - N/A   Clear
9:20 AM 66.2 °F 66.2 °F 100% 29.93 in 10.0 mi NNW 15.0 mph 19.6 mph N/A   Clear
9:35 AM 66.2 °F 66.2 °F 100% 29.94 in 10.0 mi NNW 16.1 mph 19.6 mph N/A   Clear
9:55 AM 68.0 °F 64.4 °F 88% 29.96 in 10.0 mi NNW 17.3 mph 24.2 mph N/A   Clear
10:00 AM 68.0 °F 64.4 °F 88% 29.96 in 10.0 mi NNW 16.1 mph 21.9 mph N/A   Clear
10:15 AM 68.0 °F 59.0 °F 73% 29.97 in 10.0 mi NNW 12.7 mph 23.0 mph N/A   Clear
10:35 AM 69.8 °F 57.2 °F 64% 29.97 in 10.0 mi NNW 17.3 mph 21.9 mph N/A   Clear
10:40 AM 69.8 °F 55.4 °F 60% 29.97 in 10.0 mi NNW 19.6 mph 23.0 mph N/A   Clear
10:55 AM 71.6 °F 55.4 °F 57% 29.97 in 10.0 mi NW 19.6 mph 25.3 mph N/A   Clear
11:00 AM 71.6 °F 53.6 °F 53% 29.98 in 10.0 mi NNW 23.0 mph 28.8 mph N/A   Clear
11:15 AM 71.6 °F 51.8 °F 50% 29.98 in 10.0 mi NW 18.4 mph 24.2 mph N/A   Clear
11:35 AM 71.6 °F 53.6 °F 53% 29.98 in 10.0 mi NW 17.3 mph 26.5 mph N/A   Clear
11:40 AM 71.6 °F 55.4 °F 57% 29.99 in 10.0 mi NW 20.7 mph 25.3 mph N/A   Clear
11:55 AM 71.6 °F 53.6 °F 53% 29.99 in 10.0 mi NW 18.4 mph 25.3 mph N/A   Clear
12:15 PM 71.6 °F 55.4 °F 57% 29.99 in 10.0 mi NW 21.9 mph 29.9 mph N/A   Clear
12:35 PM 71.6 °F 53.6 °F 53% 29.99 in 10.0 mi NW 24.2 mph 35.7 mph N/A   Clear
12:55 PM 71.6 °F 53.6 °F 53% 30.00 in 10.0 mi WNW 25.3 mph 32.2 mph N/A   Clear
1:00 PM 71.6 °F 53.6 °F 53% 30.00 in 10.0 mi NW 25.3 mph 32.2 mph N/A   Clear
1:15 PM 71.6 °F 53.6 °F 53% 30.00 in 10.0 mi NNW 24.2 mph 33.4 mph N/A   Clear
1:20 PM 71.6 °F 53.6 °F 53% 30.00 in 10.0 mi NW 20.7 mph 33.4 mph N/A   Clear
1:35 PM 71.6 °F 53.6 °F 53% 30.01 in 10.0 mi NW 21.9 mph 32.2 mph N/A   Clear
1:55 PM 71.6 °F 53.6 °F 53% 30.01 in 10.0 mi NW 23.0 mph 28.8 mph N/A   Clear
2:15 PM 71.6 °F 53.6 °F 53% 30.01 in 10.0 mi NW 25.3 mph 33.4 mph N/A   Clear
2:20 PM 71.6 °F 53.6 °F 53% 30.01 in 10.0 mi NW 23.0 mph 33.4 mph N/A   Clear
2:35 PM 71.6 °F 53.6 °F 53% 30.01 in 10.0 mi NNW 25.3 mph 29.9 mph N/A   Clear
2:55 PM 71.6 °F 55.4 °F 57% 30.02 in 10.0 mi NW 24.2 mph 32.2 mph N/A   Clear
3:15 PM 71.6 °F 55.4 °F 57% 30.02 in 10.0 mi NNW 19.6 mph 28.8 mph N/A   Clear
3:20 PM 71.6 °F 55.4 °F 57% 30.02 in 10.0 mi NNW 21.9 mph 29.9 mph N/A   Clear
3:35 PM 71.6 °F 53.6 °F 53% 30.02 in 10.0 mi NW 21.9 mph 28.8 mph N/A   Clear
3:40 PM 71.6 °F 55.4 °F 57% 30.02 in 10.0 mi NNW 23.0 mph 28.8 mph N/A   Clear
3:55 PM 71.6 °F 53.6 °F 53% 30.03 in 10.0 mi NW 21.9 mph 29.9 mph N/A   Clear
4:20 PM 69.8 °F 53.6 °F 56% 30.03 in 10.0 mi NNW 21.9 mph 31.1 mph N/A   Clear
4:35 PM 69.8 °F 53.6 °F 56% 30.03 in 10.0 mi NNW 18.4 mph 26.5 mph N/A   Clear
4:40 PM 69.8 °F 53.6 °F 56% 30.03 in 10.0 mi NW 16.1 mph 26.5 mph N/A   Clear
4:55 PM 69.8 °F 53.6 °F 56% 30.03 in 10.0 mi NW 17.3 mph 26.5 mph N/A   Clear
5:15 PM 69.8 °F 55.4 °F 60% 30.04 in 10.0 mi NW 17.3 mph 25.3 mph N/A   Clear
5:20 PM 69.8 °F 55.4 °F 60% 30.04 in 10.0 mi NW 18.4 mph 24.2 mph N/A   Clear
5:35 PM 69.8 °F 55.4 °F 60% 30.04 in 10.0 mi NW 18.4 mph 27.6 mph N/A   Partly Cloudy
5:40 PM 68.0 °F 55.4 °F 64% 30.05 in 10.0 mi NNW 19.6 mph 27.6 mph N/A   Partly Cloudy
5:55 PM 68.0 °F 55.4 °F 64% 30.05 in 10.0 mi NNW 18.4 mph 23.0 mph N/A   Partly Cloudy
6:15 PM 68.0 °F 55.4 °F 64% 30.05 in 10.0 mi NW 19.6 mph - N/A   Partly Cloudy
6:20 PM 68.0 °F 55.4 °F 64% 30.05 in 10.0 mi NNW 16.1 mph - N/A   Scattered Clouds
6:35 PM 68.0 °F 55.4 °F 64% 30.06 in 10.0 mi NNW 16.1 mph 19.6 mph N/A   Mostly Cloudy
6:55 PM 68.0 °F 55.4 °F 64% 30.06 in 10.0 mi North 12.7 mph 16.1 mph N/A   Mostly Cloudy
7:00 PM 66.2 °F 55.4 °F 68% 30.06 in 10.0 mi NNW 13.8 mph 17.3 mph N/A   Mostly Cloudy
7:15 PM 66.2 °F 55.4 °F 68% 30.07 in 10.0 mi NNW 9.2 mph - N/A   Scattered Clouds
7:20 PM 64.4 °F 55.4 °F 73% 30.07 in 10.0 mi NNW 9.2 mph - N/A   Partly Cloudy
7:35 PM 64.4 °F 57.2 °F 77% 30.07 in 10.0 mi NNW 9.2 mph - N/A   Clear
7:55 PM 62.6 °F 57.2 °F 82% 30.08 in 10.0 mi NNW 6.9 mph - N/A   Clear
8:00 PM 62.6 °F 57.2 °F 82% 30.08 in 10.0 mi NNW 6.9 mph - N/A   Clear
8:15 PM 59.0 °F 59.0 °F 100% 30.08 in 10.0 mi NNW 9.2 mph - N/A   Clear
8:20 PM 59.0 °F 59.0 °F 100% 30.08 in 10.0 mi NNW 8.1 mph - N/A   Clear
8:35 PM 59.0 °F 59.0 °F 100% 30.09 in 10.0 mi NNW 5.8 mph - N/A   Clear
8:40 PM 57.2 °F 57.2 °F 100% 30.09 in 10.0 mi NNW 5.8 mph - N/A   Clear
8:55 PM 57.2 °F 57.2 °F 100% 30.09 in 10.0 mi North 5.8 mph - N/A   Clear
9:15 PM 57.2 °F 57.2 °F 100% 30.10 in 10.0 mi NNW 5.8 mph - N/A   Clear
9:20 PM 57.2 °F 57.2 °F 100% 30.10 in 10.0 mi NNW 5.8 mph - N/A   Clear
9:35 PM 55.4 °F 55.4 °F 100% 30.11 in 10.0 mi North 4.6 mph - N/A   Clear
9:40 PM 55.4 °F 55.4 °F 100% 30.11 in 10.0 mi North 4.6 mph - N/A   Clear
9:55 PM 55.4 °F 55.4 °F 100% 30.11 in 10.0 mi North 4.6 mph - N/A   Clear
10:20 PM 55.4 °F 55.4 °F 100% 30.12 in 10.0 mi NNE 3.5 mph - N/A   Clear
10:35 PM 55.4 °F 55.4 °F 100% 30.12 in 10.0 mi North 8.1 mph - N/A   Clear
10:40 PM 55.4 °F 55.4 °F 100% 30.12 in 10.0 mi North 8.1 mph - N/A   Clear
10:55 PM 55.4 °F 55.4 °F 100% 30.13 in 10.0 mi North 4.6 mph - N/A   Clear
11:15 PM 53.6 °F 53.6 °F 100% 30.13 in 10.0 mi North 5.8 mph - N/A   Clear
11:20 PM 53.6 °F 53.6 °F 100% 30.13 in 10.0 mi North 4.6 mph - N/A   Clear
11:35 PM 53.6 °F 53.6 °F 100% 30.14 in 10.0 mi NW 4.6 mph - N/A   Clear
11:40 PM 55.4 °F 55.4 °F 100% 30.13 in 10.0 mi NW 4.6 mph - N/A   Clear
11:55 PM 53.6 °F 53.6 °F 100% 30.14 in 10.0 mi NW 4.6 mph - N/A   Clear